sat.trackr.live / text

‹ back to catalog

STARLINK-4385

NORAD 53198 · 2022-084K

PAYLOAD ACTIVE UNKNOWN

§ Identity

Operator
Country
US
Launch date
2022-07-22
Launch site
AFWTR
Launch vehicle
Mass (kg)
RCS (m²)

Purposes: comms

External: N2YO · Heavens-Above · Gunter

§ Orbital elements

Epoch: 2026-05-25T03:38:50.896608Z

Period
95.64 min
Inclination
97.4449°
Eccentricity
0.0001244
Mean motion
15.05691515 rev/d
Perigee alt
548.5 km
Apogee alt
550.2 km
Semi-major
6,927.5 km
B*
-4.1663e-4
RAAN
205.1618°
Arg perigee
176.9225°
Mean anomaly
183.2010°
Rev number
21,147

§ Raw data

STARLINK-43851 53198U 22084K   26145.15197797 -.00006071  00000+0 -41663-3 0  99942 53198  97.4449 205.1618 0001244 176.9225 183.2010 15.05691515211479

JSON: /api/v1/satellites/53198 · /tle

For live sub-satellite position, see the globe view (requires WebGL).

§ Visibility from observer

Set your observer location to see the next 7 days of passes ≥ 10°. The values pass through the URL so the page stays shareable.

No JS? Fill the form by hand. The geolocation button needs JavaScript.